Retour au catalogue

ONEWEB-0131

ActifCommunicationsPO
NORAD 47277·PAYLOAD·🇬🇧 United Kingdom

Lancé Dec 18, 2020 depuis Vostochny Cosmodrome

Loading…

Prochains Passages (prochaines 24 heures)

TLE

FraisSource: CelesTrak SupGP

Époque: Sep 15, 2026, 03:38 UTC

1 47277C 20100V   26258.15192546  .00001932  00000+0  53767-2 0  2588
2 47277  87.8968 332.8046 0001954  97.1898 289.3093 13.12437274    11

Suivez ONEWEB-0131 en temps réel avec AllMySat

Download on the App Store